Broomfield, CO

1:40 PM MST on February 20, 2017 (GMT -0700)
Jeffco

Weather History for KBJC - June, 2012

Change the Weather History Date:

Thursday, June 14, 2012

  Actual Average Record
Temperature  
Mean Temperature 72 °F -  
Max Temperature 84 °F 76 °F 100 °F (2006)
Min Temperature 60 °F 52 °F 42 °F (2001)
Cooling Degree Days 7    
Growing Degree Days 22 (Base 50)    
Moisture  
Dew Point 25 °F    
Average Humidity 19    
Maximum Humidity 37    
Minimum Humidity 12    
Precipitation  
Precipitation 0.00 in - - ()
Sea Level Pressure  
Sea Level Pressure 29.95 in    
Wind  
Wind Speed 6 mph (NW)    
Max Wind Speed 13 mph    
Max Gust Speed 18 mph    
Visibility 12 miles    
Events      
Averages and records for this station are not official NWS values.
T = Trace of Precipitation, MM = Missing Value Source: NWS Daily Summary

Daily Weather History Graph

Daily Weather History Graph

Search for Another Location

Airport or City:

Trip Planner

Search our weather history database for the weather conditions in past years. The results will help you decide how hot, cold, wet, or windy it might be!

Date:

Astronomy

Jun. 14, 2012 Rise Set
Actual Time 5:31 AM MDT 8:30 PM MDT
Civil Twilight 4:58 AM MDT 9:03 PM MDT
Nautical Twilight 4:17 AM MDT 9:44 PM MDT
Astronomical Twilight 3:28 AM MDT 10:33 PM MDT
Moon 2:14 AM MDT (6/14) 4:16 PM MDT (6/14)
Length of Visible Light 16h 04m
Length of Day
14h 59m
Waning Crescent, 20% of the Moon is Illuminated
Jun 14
Waning Crescent
Jun 19
New
Jun 26
First Quarter
Jul 3
Full
Jul 10
Last Quarter

Hourly Weather History & Observations

Time (MDT) Temp. Dew Point Humidity Pressure Visibility Wind Dir Wind Speed Gust Speed Precip Events Conditions
12:11 AM 73.4 °F 24.8 °F 16% 29.85 in 10.0 mi South 3.5 mph - N/A   Clear
12:31 AM 69.8 °F 28.4 °F 21% 29.86 in 10.0 mi South 3.5 mph - N/A   Clear
12:51 AM 69.8 °F 26.6 °F 20% 29.86 in 10.0 mi SSW 5.8 mph - N/A   Clear
1:11 AM 68.0 °F 23.0 °F 18% 29.86 in 10.0 mi SW 8.1 mph - N/A   Clear
1:31 AM 64.4 °F 19.4 °F 18% 29.85 in 10.0 mi WSW 6.9 mph - N/A   Clear
1:51 AM 62.6 °F 17.6 °F 18% 29.85 in 10.0 mi WSW 9.2 mph - N/A   Clear
2:11 AM 62.6 °F 17.6 °F 18% 29.85 in 10.0 mi West 4.6 mph - N/A   Clear
2:31 AM 66.2 °F 12.2 °F 12% 29.86 in 10.0 mi West 8.1 mph - N/A   Clear
2:51 AM 68.0 °F 12.2 °F 12% 29.88 in 10.0 mi North 10.4 mph 18.4 mph N/A   Clear
3:11 AM 62.6 °F 19.4 °F 19% 29.88 in 10.0 mi SSW 3.5 mph - N/A   Clear
3:31 AM 64.4 °F 17.6 °F 16% 29.88 in 10.0 mi WNW 8.1 mph - N/A   Clear
3:51 AM 64.4 °F 14.0 °F 14% 29.89 in 10.0 mi WNW 3.5 mph - N/A   Clear
4:11 AM 69.8 °F 14.0 °F 12% 29.90 in 10.0 mi Calm Calm - N/A   Clear
4:31 AM 71.6 °F 17.6 °F 13% 29.91 in 10.0 mi WNW 3.5 mph - N/A   Clear
4:51 AM 64.4 °F 14.0 °F 14% 29.90 in 10.0 mi West 11.5 mph - N/A   Clear
5:11 AM 60.8 °F 14.0 °F 16% 29.91 in 10.0 mi Calm Calm - N/A   Clear
5:31 AM 60.8 °F 12.2 °F 15% 29.92 in 10.0 mi West 8.1 mph - N/A   Clear
5:51 AM 60.8 °F 12.2 °F 15% 29.92 in 10.0 mi WSW 5.8 mph - N/A   Clear
5:52 AM 62.6 °F 10.4 °F 13% 29.92 in 30.0 mi West 6.9 mph - N/A   Clear
6:46 AM 64.4 °F 19.4 °F 18% 29.97 in 30.0 mi NE 9.2 mph - N/A   Clear
7:48 AM 64.4 °F 37.4 °F 37% 30.02 in 20.0 mi NE 12.7 mph - N/A   Clear
8:50 AM 66.2 °F 35.6 °F 32% 30.05 in 20.0 mi NE 4.6 mph - N/A   Clear
9:48 AM 68.0 °F 35.6 °F 30% 30.06 in 20.0 mi North 3.5 mph - N/A   Clear
10:50 AM 71.6 °F 35.6 °F 27% 30.05 in 20.0 mi East 3.5 mph - N/A   Partly Cloudy
11:48 AM 75.2 °F 33.8 °F 22% 30.05 in 20.0 mi ENE 9.2 mph - N/A   Partly Cloudy
12:49 PM 77.0 °F 32.0 °F 19% 30.03 in 20.0 mi NE 5.8 mph - N/A   Partly Cloudy
1:53 PM 80.6 °F 32.0 °F 17% 30.01 in 20.0 mi Variable 3.5 mph - N/A   Scattered Clouds
2:49 PM 84.2 °F 28.4 °F 13% 30.01 in 30.0 mi SE 8.1 mph - N/A   Scattered Clouds
3:45 PM 80.6 °F 30.2 °F 16% 30.00 in 30.0 mi ENE 5.8 mph - N/A   Scattered Clouds
4:55 PM 82.4 °F 30.2 °F 15% 30.00 in 30.0 mi NE 6.9 mph - N/A   Mostly Cloudy
5:48 PM 82.4 °F 32.0 °F 16% 29.98 in 25.0 mi North 9.2 mph - N/A   Mostly Cloudy
6:47 PM 80.6 °F 32.0 °F 17% 29.98 in 25.0 mi North 4.6 mph - N/A   Mostly Cloudy
7:48 PM 77.0 °F 35.6 °F 22% 29.98 in 30.0 mi North 9.2 mph - N/A   Mostly Cloudy
8:49 PM 75.2 °F 32.0 °F 21% 30.00 in 30.0 mi NW 5.8 mph - N/A   Mostly Cloudy
9:47 PM 73.4 °F 30.2 °F 20% 29.98 in 30.0 mi Calm Calm - N/A   Mostly Cloudy
11:11 PM 69.8 °F 33.8 °F 27% 30.02 in 10.0 mi ESE 5.8 mph - N/A   Clear
11:31 PM 69.8 °F 35.6 °F 28% 30.04 in 10.0 mi Calm Calm - N/A   Clear
11:51 PM 69.8 °F 41.0 °F 35% 30.04 in 10.0 mi Calm Calm - N/A   Clear